Clearwater, FL

11:29 AM EDT on September 26, 2016 (GMT -0400)
Saint Petersburg-Clearwater International

Weather History for KPIE - July, 2013

Change the Weather History Date:

Thursday, July 4, 2013

  Actual Average Record
Temperature  
Mean Temperature 82 °F -  
Max Temperature 89 °F 90 °F 95 °F (1970)
Min Temperature 75 °F 77 °F 66 °F (1954)
Cooling Degree Days 16    
Growing Degree Days 32 (Base 50)    
Moisture  
Dew Point 72 °F    
Average Humidity 83    
Maximum Humidity 94    
Minimum Humidity 59    
Precipitation  
Precipitation 0.49 in - - ()
Sea Level Pressure  
Sea Level Pressure 30.11 in    
Wind  
Wind Speed 9 mph (ESE)    
Max Wind Speed 17 mph    
Max Gust Speed 25 mph    
Visibility 9 miles    
Events Rain , Thunderstorm    
Averages and records for this station are not official NWS values.
T = Trace of Precipitation, MM = Missing Value Source: NWS Daily Summary

Daily Weather History Graph

Daily Weather History Graph

Search for Another Location

Airport or City:

Trip Planner

Search our weather history database for the weather conditions in past years. The results will help you decide how hot, cold, wet, or windy it might be!

Date:

Astronomy

Jul. 04, 2013 Rise Set
Actual Time 6:39 AM EDT 8:30 PM EDT
Civil Twilight 6:12 AM EDT 8:57 PM EDT
Nautical Twilight 5:40 AM EDT 9:29 PM EDT
Astronomical Twilight 5:06 AM EDT 10:03 PM EDT
Moon 3:48 AM EDT (7/4) 5:39 PM EDT (7/4)
Length of Visible Light 14h 44m
Length of Day
13h 51m
Waning Crescent, 11% of the Moon is Illuminated
Jul 4
Waning Crescent
Jul 8
New
Jul 15
First Quarter
Jul 22
Full
Jul 29
Last Quarter

Hourly Weather History & Observations

Time (EDT) Temp. Heat Index Dew Point Humidity Pressure Visibility Wind Dir Wind Speed Gust Speed Precip Events Conditions
12:53 AM 75.9 °F - 73.9 °F 94% 30.11 in 10.0 mi ESE 9.2 mph - N/A   Partly Cloudy
1:53 AM 75.9 °F - 73.9 °F 94% 30.10 in 10.0 mi SE 9.2 mph - N/A   Scattered Clouds
2:53 AM 75.0 °F - 73.0 °F 94% 30.08 in 10.0 mi SE 6.9 mph - N/A   Clear
3:53 AM 75.0 °F - 72.0 °F 90% 30.07 in 10.0 mi ESE 5.8 mph - N/A   Clear
4:53 AM 75.0 °F - 72.0 °F 90% 30.07 in 10.0 mi ESE 8.1 mph - N/A   Clear
5:53 AM 75.0 °F - 72.0 °F 90% 30.07 in 10.0 mi ESE 10.4 mph - N/A   Clear
6:53 AM 75.0 °F - 72.0 °F 90% 30.08 in 10.0 mi ESE 9.2 mph - N/A   Clear
7:53 AM 77.0 °F - 72.0 °F 84% 30.10 in 10.0 mi ESE 8.1 mph - N/A   Clear
8:53 AM 80.1 °F 83.8 °F 72.0 °F 76% 30.11 in 10.0 mi ESE 13.8 mph 21.9 mph N/A   Clear
9:53 AM 81.0 °F 86.2 °F 73.9 °F 79% 30.12 in 10.0 mi SE 10.4 mph - N/A   Clear
10:53 AM 82.9 °F 90.2 °F 75.0 °F 77% 30.12 in 10.0 mi SE 13.8 mph 25.3 mph N/A   Scattered Clouds
11:53 AM 82.9 °F 89.4 °F 73.9 °F 74% 30.12 in 10.0 mi SE 11.5 mph 20.7 mph N/A   Partly Cloudy
12:53 PM 86.0 °F 93.0 °F 73.0 °F 65% 30.12 in 10.0 mi SE 12.7 mph 21.9 mph N/A   Partly Cloudy
1:53 PM 87.1 °F 93.6 °F 72.0 °F 61% 30.11 in 10.0 mi SSE 16.1 mph 21.9 mph N/A   Partly Cloudy
2:53 PM 88.0 °F 94.7 °F 72.0 °F 59% 30.09 in 10.0 mi South 9.2 mph - N/A   Scattered Clouds
3:53 PM 87.1 °F 94.5 °F 73.0 °F 63% 30.08 in 10.0 mi SW 12.7 mph - N/A   Mostly Cloudy
4:02 PM 86.0 °F 93.4 °F 73.4 °F 66% 30.07 in 10.0 mi SW 17.3 mph - N/A Thunderstorm Thunderstorm
4:33 PM 78.8 °F - 75.2 °F 89% 30.10 in 3.0 mi SE 11.5 mph - 0.05 in Rain , Thunderstorm Rain
4:53 PM 78.1 °F - 73.9 °F 87% 30.10 in 10.0 mi South 12.7 mph 20.7 mph 0.06 in Thunderstorm Mostly Cloudy
5:14 PM 77.0 °F - 71.6 °F 83% 30.07 in 10.0 mi South 16.1 mph 23.0 mph 0.00 in Thunderstorm Scattered Clouds
5:35 PM 77.0 °F - 71.6 °F 83% 30.07 in 10.0 mi SSE 6.9 mph - 0.00 in   Partly Cloudy
5:53 PM 78.1 °F - 72.0 °F 81% 30.10 in 10.0 mi SE 6.9 mph - 0.00 in   Clear
6:53 PM 78.1 °F - 73.0 °F 84% 30.10 in 10.0 mi ENE 6.9 mph - N/A   Clear
7:53 PM 77.0 °F - 70.0 °F 79% 30.13 in 10.0 mi NNE 8.1 mph - N/A   Overcast
8:12 PM 75.2 °F - 71.6 °F 89% 30.14 in 1.8 mi NNW 3.5 mph - 0.07 in Rain Heavy Rain
8:21 PM 75.2 °F - 73.4 °F 94% 30.15 in 0.8 mi Variable 3.5 mph - 0.32 in Rain Heavy Rain
8:29 PM 75.2 °F - 73.4 °F 94% 30.14 in 2.0 mi WNW 6.9 mph - 0.42 in Rain Heavy Rain
8:32 PM 75.2 °F - 71.6 °F 89% 30.14 in 3.0 mi Calm Calm - 0.42 in Rain , Thunderstorm Light Thunderstorms and Rain
8:39 PM 75.2 °F - 73.4 °F 94% 30.15 in 10.0 mi North 6.9 mph - 0.43 in Rain , Thunderstorm Light Thunderstorms and Rain
8:53 PM 75.0 °F - 73.0 °F 94% 30.17 in 10.0 mi NE 9.2 mph - 0.43 in   Mostly Cloudy
9:05 PM 75.2 °F - 71.6 °F 89% 30.16 in 10.0 mi NE 9.2 mph - N/A   Mostly Cloudy
9:27 PM 75.2 °F - 69.8 °F 83% 30.15 in 10.0 mi NNE 5.8 mph - N/A   Scattered Clouds
9:53 PM 75.0 °F - 71.1 °F 87% 30.14 in 10.0 mi NNE 4.6 mph - N/A   Clear
10:53 PM 75.9 °F - 71.1 °F 85% 30.14 in 9.0 mi ENE 8.1 mph - N/A   Clear
11:53 PM 75.9 °F - 71.1 °F 85% 30.14 in 8.0 mi East 8.1 mph - N/A   Partly Cloudy